Simultaneous Nadir Overpasses (SNOs) Predictions

Prediction of SNOs between AQUA and NOAA-19 Satellite Orbit:

Table of predicted SNOs for the next 14.0 days since TLE Epoch: 4/10/2020
Index Date (AQUA) Time (AQUA) Lat,Lon (AQUA) SZA (AQUA ) Date (NOAA-19) Time (NOAA-19) Lat,Lon (NOAA-19) SZA (NOAA-19 ) Distance(km) Time Diff (sec)
1 04/11/2020 15:08:38 -79.90, 103.19 107.41 04/11/2020 15:08:50 -79.87, 103.12 107.43 2.96 12
2 04/13/2020 20:42:22 79.87,-160.05 71.74 04/13/2020 20:42:10 79.88,-160.04 71.75 0.76 12
3 04/16/2020 02:16:05 -79.88, -63.50 109.07 04/16/2020 02:15:28 -79.87, -63.36 109.07 2.88 37
4 04/16/2020 03:05:33 79.90, 103.94 70.96 04/16/2020 03:06:30 79.88, 103.91 70.93 2.78 57
5 04/18/2020 07:49:49 79.86, 33.18 70.12 04/18/2020 07:48:50 79.85, 33.15 70.14 1.07 59
6 04/18/2020 08:39:15 -79.87,-159.23 109.88 04/18/2020 08:39:47 -79.88,-159.27 109.88 1.53 32
7 04/20/2020 14:12:59 79.86, -62.59 69.33 04/20/2020 14:13:09 79.87, -62.64 69.35 1.67 10
8 04/22/2020 19:46:42 -79.86, 33.94 111.42 04/22/2020 19:46:26 -79.85, 33.88 111.42 1.80 16




NCC Satellite Simultaneous Nadir Overpasses (SNOs) Prediction Service
